Year,Month,Day,Hour,Minute,Value (Times are PST for temperature in C)
2013,07,14,00,00,15.30
2013,07,14,00,05,15.10
2013,07,14,00,06,15.10
2013,07,14,00,07,15.10
2013,07,14,00,08,15.10
2013,07,14,00,09,15.00
2013,07,14,00,10,15.00
2013,07,14,00,11,15.00
2013,07,14,00,12,14.90
2013,07,14,00,13,14.90
2013,07,14,00,14,14.90
2013,07,14,00,15,14.90
2013,07,14,00,16,14.90
2013,07,14,00,17,14.90
2013,07,14,00,18,15.00
2013,07,14,00,19,15.00
2013,07,14,00,20,15.00
2013,07,14,00,21,15.00
2013,07,14,00,22,15.00
2013,07,14,00,23,15.00
2013,07,14,00,24,15.00
2013,07,14,00,25,15.10
2013,07,14,00,26,15.20
2013,07,14,00,27,15.20
2013,07,14,00,28,15.20
2013,07,14,00,29,15.20
2013,07,14,00,30,15.20
2013,07,14,00,31,15.20
2013,07,14,00,32,15.20
2013,07,14,00,33,15.30
2013,07,14,00,34,15.30
2013,07,14,00,35,15.30
2013,07,14,00,36,15.30
2013,07,14,00,37,15.30
2013,07,14,00,38,15.30
2013,07,14,00,39,15.30
2013,07,14,00,40,15.30
2013,07,14,00,41,15.30
2013,07,14,00,42,15.30
2013,07,14,00,43,15.30
2013,07,14,00,44,15.30
2013,07,14,00,45,15.20
2013,07,14,00,46,15.20
2013,07,14,00,47,15.20
2013,07,14,00,48,15.20
2013,07,14,00,49,15.20
2013,07,14,00,50,15.20
2013,07,14,00,51,15.20
2013,07,14,00,52,15.20
2013,07,14,00,53,15.10
2013,07,14,00,54,15.10
2013,07,14,00,55,15.10
2013,07,14,00,56,15.00
2013,07,14,00,57,15.00
2013,07,14,00,58,15.00
2013,07,14,00,59,15.00
2013,07,14,01,00,15.00
2013,07,14,01,01,15.00
2013,07,14,01,02,14.90
2013,07,14,01,03,15.00
2013,07,14,01,04,15.00
2013,07,14,01,05,15.10
2013,07,14,01,06,15.10
2013,07,14,01,07,15.10
2013,07,14,01,08,15.10
2013,07,14,01,09,15.10
2013,07,14,01,10,15.10
2013,07,14,01,11,15.10
2013,07,14,01,12,15.10
2013,07,14,01,13,15.10
2013,07,14,01,14,15.10
2013,07,14,01,15,15.10
2013,07,14,01,16,15.20
2013,07,14,01,17,15.20
2013,07,14,01,18,15.30
2013,07,14,01,19,15.30
2013,07,14,01,20,15.30
2013,07,14,01,21,15.30
2013,07,14,01,22,15.40
2013,07,14,01,23,15.40
2013,07,14,01,24,15.40
2013,07,14,01,25,15.40
2013,07,14,01,26,15.40
2013,07,14,01,27,15.40
2013,07,14,01,28,15.40
2013,07,14,01,29,15.40
2013,07,14,01,30,15.40
2013,07,14,01,31,15.40
2013,07,14,01,32,15.40
2013,07,14,01,33,15.40
2013,07,14,01,34,15.40
2013,07,14,01,35,15.40
2013,07,14,01,36,15.30
2013,07,14,01,37,15.30
2013,07,14,01,38,15.30
2013,07,14,01,39,15.20
2013,07,14,01,40,15.20
2013,07,14,01,41,15.10
2013,07,14,01,42,15.00
2013,07,14,01,43,15.00
2013,07,14,01,44,15.00
2013,07,14,01,45,14.90
2013,07,14,01,46,14.90
2013,07,14,01,47,14.80
2013,07,14,01,48,14.80
2013,07,14,01,49,14.70
2013,07,14,01,50,14.70
2013,07,14,01,51,14.70
2013,07,14,01,52,14.70
2013,07,14,01,53,14.70
2013,07,14,01,54,14.70
2013,07,14,01,55,14.70
2013,07,14,01,56,14.70
2013,07,14,01,57,14.70
2013,07,14,01,58,14.70
2013,07,14,01,59,14.70
2013,07,14,02,00,14.70
2013,07,14,02,01,14.70
2013,07,14,02,02,14.70
2013,07,14,02,03,14.70
2013,07,14,02,04,14.70
2013,07,14,02,05,14.60
2013,07,14,02,06,14.60
2013,07,14,02,07,14.60
2013,07,14,02,08,14.60
2013,07,14,02,09,14.60
2013,07,14,02,10,14.50
2013,07,14,02,11,14.50
2013,07,14,02,12,14.40
2013,07,14,02,13,14.40
2013,07,14,02,14,14.30
2013,07,14,02,15,14.30
2013,07,14,02,16,14.30
2013,07,14,02,17,14.30
2013,07,14,02,18,14.20
2013,07,14,02,19,14.20
2013,07,14,02,20,14.20
2013,07,14,02,21,14.20
2013,07,14,02,22,14.10
2013,07,14,02,23,14.10
2013,07,14,02,24,14.10
2013,07,14,02,25,14.10
2013,07,14,02,26,14.10
2013,07,14,02,27,14.00
2013,07,14,02,28,14.00
2013,07,14,02,29,14.00
2013,07,14,02,30,13.90
2013,07,14,02,31,13.90
2013,07,14,02,32,13.90
2013,07,14,02,33,13.90
2013,07,14,02,34,13.80
2013,07,14,02,35,13.80
2013,07,14,02,36,13.80
2013,07,14,02,37,13.80
2013,07,14,02,38,13.70
2013,07,14,02,39,13.70
2013,07,14,02,40,13.70
2013,07,14,02,41,13.70
2013,07,14,02,42,13.70
2013,07,14,02,43,13.70
2013,07,14,02,44,13.60
2013,07,14,02,45,13.60
2013,07,14,02,46,13.60
2013,07,14,02,47,13.60
2013,07,14,02,48,13.50
2013,07,14,02,49,13.50
2013,07,14,02,50,13.50
2013,07,14,02,51,13.50
2013,07,14,02,52,13.50
2013,07,14,02,53,13.50
2013,07,14,02,54,13.40
2013,07,14,02,55,13.40
2013,07,14,02,56,13.40
2013,07,14,02,57,13.30
2013,07,14,02,58,13.30
2013,07,14,02,59,13.30
2013,07,14,03,00,13.30
2013,07,14,03,01,13.30
2013,07,14,03,02,13.30
2013,07,14,03,03,13.20
2013,07,14,03,04,13.20
2013,07,14,03,05,13.20
2013,07,14,03,06,13.20
2013,07,14,03,07,13.20
2013,07,14,03,08,13.20
2013,07,14,03,09,13.20
2013,07,14,03,10,13.20
2013,07,14,03,11,13.20
2013,07,14,03,12,13.10
2013,07,14,03,13,13.10
2013,07,14,03,14,13.10
2013,07,14,03,15,13.10
2013,07,14,03,16,13.10
2013,07,14,03,17,13.10
2013,07,14,03,18,13.00
2013,07,14,03,19,13.00
2013,07,14,03,20,12.90
2013,07,14,03,21,12.90
2013,07,14,03,22,12.90
2013,07,14,03,23,12.90
2013,07,14,03,24,12.90
2013,07,14,03,25,12.90
2013,07,14,03,26,12.90
2013,07,14,03,27,12.90
2013,07,14,03,28,12.90
2013,07,14,03,29,12.90
2013,07,14,03,30,12.90
2013,07,14,03,31,12.90
2013,07,14,03,32,12.90
2013,07,14,03,33,12.90
2013,07,14,03,34,12.90
2013,07,14,03,35,12.90
2013,07,14,03,36,12.80
2013,07,14,03,37,12.80
2013,07,14,03,38,12.80
2013,07,14,03,39,12.80
2013,07,14,03,40,12.80
2013,07,14,03,41,12.70
2013,07,14,03,42,12.70
2013,07,14,03,43,12.70
2013,07,14,03,44,12.70
2013,07,14,03,45,12.70
2013,07,14,03,46,12.70
2013,07,14,03,47,12.70
2013,07,14,03,48,12.70
2013,07,14,03,49,12.70
2013,07,14,03,50,12.70
2013,07,14,03,51,12.70
2013,07,14,03,52,12.70
2013,07,14,03,53,12.70
2013,07,14,03,54,12.70
2013,07,14,03,55,12.80
2013,07,14,03,56,12.80
2013,07,14,03,57,12.80
2013,07,14,03,58,12.80
2013,07,14,03,59,12.80
2013,07,14,04,00,12.80
2013,07,14,04,01,12.80
2013,07,14,04,02,12.80
2013,07,14,04,03,12.70
2013,07,14,04,04,12.70
2013,07,14,04,05,12.70
2013,07,14,04,06,12.70
2013,07,14,04,07,12.70
2013,07,14,04,08,12.70
2013,07,14,04,09,12.70
2013,07,14,04,10,12.70
2013,07,14,04,11,12.70
2013,07,14,04,12,12.70
2013,07,14,04,13,12.70
2013,07,14,04,14,12.70
2013,07,14,04,15,12.70
2013,07,14,04,16,12.70
2013,07,14,04,17,12.70
2013,07,14,04,18,12.70
2013,07,14,04,19,12.70
2013,07,14,04,20,12.60
2013,07,14,04,21,12.60
2013,07,14,04,22,12.60
2013,07,14,04,23,12.60
2013,07,14,04,24,12.50
2013,07,14,04,25,12.50
2013,07,14,04,26,12.40
2013,07,14,04,27,12.40
2013,07,14,04,28,12.40
2013,07,14,04,29,12.40
2013,07,14,04,30,12.40
2013,07,14,04,31,12.40
2013,07,14,04,32,12.40
2013,07,14,04,33,12.40
2013,07,14,04,34,12.40
2013,07,14,04,35,12.30
2013,07,14,04,36,12.30
2013,07,14,04,37,12.30
2013,07,14,04,38,12.30
2013,07,14,04,39,12.30
2013,07,14,04,40,12.30
2013,07,14,04,41,12.30
2013,07,14,04,42,12.30
2013,07,14,04,43,12.30
2013,07,14,04,44,12.20
2013,07,14,04,45,12.20
2013,07,14,04,46,12.20
2013,07,14,04,47,12.20
2013,07,14,04,48,12.20
2013,07,14,04,49,12.20
2013,07,14,04,50,12.20
2013,07,14,04,51,12.20
2013,07,14,04,52,12.20
2013,07,14,04,53,12.20
2013,07,14,04,54,12.20
2013,07,14,04,55,12.20
2013,07,14,04,56,12.20
2013,07,14,04,57,12.20
2013,07,14,04,58,12.20
2013,07,14,04,59,12.20
2013,07,14,05,00,12.20
2013,07,14,05,01,12.20
2013,07,14,05,02,12.20
2013,07,14,05,03,12.10
2013,07,14,05,04,12.10
2013,07,14,05,05,12.10
2013,07,14,05,06,12.10
2013,07,14,05,07,12.10
2013,07,14,05,08,12.10
2013,07,14,05,09,12.10
2013,07,14,05,10,12.10
2013,07,14,05,11,12.10
2013,07,14,05,12,12.00
2013,07,14,05,13,12.10
2013,07,14,05,14,12.10
2013,07,14,05,15,12.10
2013,07,14,05,16,12.10
2013,07,14,05,17,12.10
2013,07,14,05,18,12.10
2013,07,14,05,19,12.10
2013,07,14,05,20,12.10
2013,07,14,05,21,12.10
2013,07,14,05,22,12.10
2013,07,14,05,23,12.10
2013,07,14,05,24,12.10
2013,07,14,05,25,12.10
2013,07,14,05,26,12.00
2013,07,14,05,27,12.00
2013,07,14,05,28,12.00
2013,07,14,05,29,12.00
2013,07,14,05,30,12.00
2013,07,14,05,31,12.00
2013,07,14,05,32,12.00
2013,07,14,05,33,12.00
2013,07,14,05,34,12.00
2013,07,14,05,35,12.00
2013,07,14,05,36,11.90
2013,07,14,05,37,11.90
2013,07,14,05,38,12.00
2013,07,14,05,39,12.00
2013,07,14,05,40,12.00
2013,07,14,05,41,11.90
2013,07,14,05,42,11.90
2013,07,14,05,43,11.90
2013,07,14,05,44,11.90
2013,07,14,05,45,11.90
2013,07,14,05,46,11.90
2013,07,14,05,47,11.90
2013,07,14,05,48,11.80
2013,07,14,05,49,11.80
2013,07,14,05,50,11.90
2013,07,14,05,51,11.90
2013,07,14,05,52,11.90
2013,07,14,05,53,11.90
2013,07,14,05,54,11.90
2013,07,14,05,55,11.90
2013,07,14,05,56,11.90
2013,07,14,05,57,11.90
2013,07,14,05,58,12.00
2013,07,14,05,59,12.00
2013,07,14,06,00,12.10
2013,07,14,06,01,12.20
2013,07,14,06,02,12.20
2013,07,14,06,03,12.20
2013,07,14,06,04,12.30
2013,07,14,06,05,12.30
2013,07,14,06,06,12.30
2013,07,14,06,07,12.30
2013,07,14,06,08,12.30
2013,07,14,06,09,12.30
2013,07,14,06,10,12.30
2013,07,14,06,11,12.30
2013,07,14,06,12,12.30
2013,07,14,06,13,12.40
2013,07,14,06,14,12.40
2013,07,14,06,15,12.40
2013,07,14,06,16,12.40
2013,07,14,06,17,12.50
2013,07,14,06,18,12.50
2013,07,14,06,19,12.60
2013,07,14,06,20,12.60
2013,07,14,06,21,12.70
2013,07,14,06,22,12.70
2013,07,14,06,23,12.70
2013,07,14,06,24,12.70
2013,07,14,06,25,12.80
2013,07,14,06,26,12.80
2013,07,14,06,27,12.80
2013,07,14,06,28,12.80
2013,07,14,06,29,12.90
2013,07,14,06,30,12.90
2013,07,14,06,31,12.90
2013,07,14,06,32,12.90
2013,07,14,06,33,12.90
2013,07,14,06,34,12.90
2013,07,14,06,35,12.90
2013,07,14,06,36,13.00
2013,07,14,06,37,13.00
2013,07,14,06,38,13.10
2013,07,14,06,39,13.10
2013,07,14,06,40,13.10
2013,07,14,06,41,13.10
2013,07,14,06,42,13.10
2013,07,14,06,43,13.20
2013,07,14,06,44,13.20
2013,07,14,06,45,13.20
2013,07,14,06,46,13.20
2013,07,14,06,47,13.20
2013,07,14,06,48,13.30
2013,07,14,06,49,13.30
2013,07,14,06,50,13.40
2013,07,14,06,51,13.40
2013,07,14,06,52,13.50
2013,07,14,06,53,13.50
2013,07,14,06,54,13.60
2013,07,14,06,55,13.60
2013,07,14,06,56,13.70
2013,07,14,06,57,13.70
2013,07,14,06,58,13.80
2013,07,14,06,59,13.80
2013,07,14,07,00,13.90
2013,07,14,07,01,13.90
2013,07,14,07,02,13.90
2013,07,14,07,03,14.00
2013,07,14,07,04,14.00
2013,07,14,07,05,14.10
2013,07,14,07,06,14.10
2013,07,14,07,07,14.20
2013,07,14,07,08,14.20
2013,07,14,07,09,14.30
2013,07,14,07,10,14.30
2013,07,14,07,11,14.30
2013,07,14,07,12,14.40
2013,07,14,07,13,14.40
2013,07,14,07,14,14.40
2013,07,14,07,15,14.40
2013,07,14,07,16,14.40
2013,07,14,07,17,14.50
2013,07,14,07,18,14.60
2013,07,14,07,19,14.60
2013,07,14,07,20,14.60
2013,07,14,07,21,14.60
2013,07,14,07,22,14.60
2013,07,14,07,23,14.60
2013,07,14,07,24,14.70
2013,07,14,07,25,14.70
2013,07,14,07,26,14.80
2013,07,14,07,27,14.80
2013,07,14,07,28,14.80
2013,07,14,07,29,14.90
2013,07,14,07,30,14.90
2013,07,14,07,31,15.00
2013,07,14,07,32,15.00
2013,07,14,07,33,15.00
2013,07,14,07,34,15.10
2013,07,14,07,35,15.10
2013,07,14,07,36,15.10
2013,07,14,07,37,15.10
2013,07,14,07,38,15.10
2013,07,14,07,39,15.10
2013,07,14,07,40,15.10
2013,07,14,07,41,15.10
2013,07,14,07,42,15.10
2013,07,14,07,43,15.10
2013,07,14,07,44,15.10
2013,07,14,07,45,15.10
2013,07,14,07,46,15.10
2013,07,14,07,47,15.10
2013,07,14,07,48,15.20
2013,07,14,07,49,15.20
2013,07,14,07,50,15.30
2013,07,14,07,51,15.30
2013,07,14,07,52,15.30
2013,07,14,07,53,15.30
2013,07,14,07,54,15.30
2013,07,14,07,55,15.40
2013,07,14,07,56,15.40
2013,07,14,07,57,15.40
2013,07,14,07,58,15.40
2013,07,14,07,59,15.50
2013,07,14,08,00,15.50
2013,07,14,08,01,15.50
2013,07,14,08,02,15.60
2013,07,14,08,03,15.60
2013,07,14,08,04,15.60
2013,07,14,08,05,15.60
2013,07,14,08,06,15.60
2013,07,14,08,07,15.60
2013,07,14,08,08,15.60
2013,07,14,08,09,15.70
2013,07,14,08,10,15.70
2013,07,14,08,11,15.70
2013,07,14,08,12,15.70
2013,07,14,08,13,15.70
2013,07,14,08,14,15.60
2013,07,14,08,15,15.60
2013,07,14,08,16,15.60
2013,07,14,08,17,15.60
2013,07,14,08,18,15.60
2013,07,14,08,19,15.50
2013,07,14,08,20,15.50
2013,07,14,08,21,15.50
2013,07,14,08,22,15.50
2013,07,14,08,23,15.40
2013,07,14,08,24,15.40
2013,07,14,08,25,15.40
2013,07,14,08,26,15.50
2013,07,14,08,27,15.50
2013,07,14,08,28,15.60
2013,07,14,08,29,15.70
2013,07,14,08,30,15.80
2013,07,14,08,31,15.90
2013,07,14,08,32,16.00
2013,07,14,08,33,16.00
2013,07,14,08,34,16.10
2013,07,14,08,35,16.10
2013,07,14,08,36,16.10
2013,07,14,08,37,16.00
2013,07,14,08,38,16.00
2013,07,14,08,39,15.90
2013,07,14,08,40,15.90
2013,07,14,08,41,15.80
2013,07,14,08,42,15.70
2013,07,14,08,43,15.70
2013,07,14,08,44,15.70
2013,07,14,08,45,15.70
2013,07,14,08,46,15.70
2013,07,14,08,47,15.70
2013,07,14,08,48,15.70
2013,07,14,08,49,15.80
2013,07,14,08,50,15.80
2013,07,14,08,51,15.80
2013,07,14,08,52,15.90
2013,07,14,08,53,15.90
2013,07,14,08,54,16.00
2013,07,14,08,55,16.10
2013,07,14,08,56,16.10
2013,07,14,08,57,16.20
2013,07,14,08,58,16.30
2013,07,14,08,59,16.30
2013,07,14,09,00,16.40
2013,07,14,09,01,16.50
2013,07,14,09,02,16.50
2013,07,14,09,03,16.60
2013,07,14,09,04,16.50
2013,07,14,09,05,16.60
2013,07,14,09,06,16.50
2013,07,14,09,07,16.50
2013,07,14,09,08,16.40
2013,07,14,09,09,16.30
2013,07,14,09,10,16.30
2013,07,14,09,11,16.30
2013,07,14,09,12,16.30
2013,07,14,09,13,16.30
2013,07,14,09,14,16.20
2013,07,14,09,15,16.20
2013,07,14,09,16,16.10
2013,07,14,09,17,16.10
2013,07,14,09,18,16.00
2013,07,14,09,19,16.00
2013,07,14,09,20,16.10
2013,07,14,09,21,16.10
2013,07,14,09,22,16.20
2013,07,14,09,23,16.20
2013,07,14,09,24,16.30
2013,07,14,09,25,16.40
2013,07,14,09,26,16.40
2013,07,14,09,27,16.40
2013,07,14,09,28,16.40
2013,07,14,09,29,16.40
2013,07,14,09,30,16.40
2013,07,14,09,31,16.40
2013,07,14,09,32,16.40
2013,07,14,09,33,16.40
2013,07,14,09,34,16.50
2013,07,14,09,35,16.60
2013,07,14,09,36,16.50
2013,07,14,09,37,16.50
2013,07,14,09,38,16.50
2013,07,14,09,39,16.50
2013,07,14,09,40,16.50
2013,07,14,09,41,16.60
2013,07,14,09,42,16.60
2013,07,14,09,43,16.80
2013,07,14,09,44,16.90
2013,07,14,09,45,16.90
2013,07,14,09,46,16.90
2013,07,14,09,47,16.90
2013,07,14,09,48,16.90
2013,07,14,09,49,17.00
2013,07,14,09,50,17.10
2013,07,14,09,51,17.00
2013,07,14,09,52,16.90
2013,07,14,09,53,16.90
2013,07,14,09,54,16.90
2013,07,14,09,55,16.90
2013,07,14,09,56,16.90
2013,07,14,09,57,16.90
2013,07,14,09,58,16.90
2013,07,14,09,59,16.90
2013,07,14,10,00,16.90
2013,07,14,10,01,16.80
2013,07,14,10,02,16.80
2013,07,14,10,03,16.80
2013,07,14,10,04,16.80
2013,07,14,10,05,16.70
2013,07,14,10,06,16.60
2013,07,14,10,07,16.60
2013,07,14,10,08,16.60
2013,07,14,10,09,16.70
2013,07,14,10,10,16.70
2013,07,14,10,11,16.80
2013,07,14,10,12,16.80
2013,07,14,10,13,16.80
2013,07,14,10,14,16.90
2013,07,14,10,15,16.90
2013,07,14,10,16,17.00
2013,07,14,10,17,17.00
2013,07,14,10,18,17.10
2013,07,14,10,19,17.10
2013,07,14,10,20,17.10
2013,07,14,10,21,17.20
2013,07,14,10,22,17.30
2013,07,14,10,23,17.30
2013,07,14,10,24,17.40
2013,07,14,10,25,17.50
2013,07,14,10,26,17.60
2013,07,14,10,27,17.70
2013,07,14,10,28,17.80
2013,07,14,10,29,17.80
2013,07,14,10,30,17.90
2013,07,14,10,31,17.90
2013,07,14,10,32,17.90
2013,07,14,10,33,17.90
2013,07,14,10,34,17.80
2013,07,14,10,35,17.90
2013,07,14,10,36,17.90
2013,07,14,10,37,17.80
2013,07,14,10,38,17.80
2013,07,14,10,39,17.80
2013,07,14,10,40,17.80
2013,07,14,10,41,17.90
2013,07,14,10,42,18.00
2013,07,14,10,43,18.10
2013,07,14,10,44,18.20
2013,07,14,10,45,18.20
2013,07,14,10,46,18.30
2013,07,14,10,47,18.40
2013,07,14,10,48,18.50
2013,07,14,10,49,18.50
2013,07,14,10,50,18.50
2013,07,14,10,51,18.40
2013,07,14,10,52,18.40
2013,07,14,10,53,18.50
2013,07,14,10,54,18.50
2013,07,14,10,55,18.50
2013,07,14,10,56,18.40
2013,07,14,10,57,18.30
2013,07,14,10,58,18.20
2013,07,14,10,59,18.10
2013,07,14,11,00,18.20
2013,07,14,11,01,18.20
2013,07,14,11,02,18.20
2013,07,14,11,03,18.20
2013,07,14,11,04,18.30
2013,07,14,11,05,18.40
2013,07,14,11,06,18.40
2013,07,14,11,07,18.40
2013,07,14,11,08,18.40
2013,07,14,11,09,18.40
2013,07,14,11,10,18.40
2013,07,14,11,11,18.30
2013,07,14,11,12,18.20
2013,07,14,11,13,18.20
2013,07,14,11,14,18.20
2013,07,14,11,15,18.20
2013,07,14,11,16,18.20
2013,07,14,11,17,18.20
2013,07,14,11,18,18.20
2013,07,14,11,19,18.20
2013,07,14,11,20,18.30
2013,07,14,11,21,18.30
2013,07,14,11,22,18.40
2013,07,14,11,23,18.40
2013,07,14,11,24,18.40
2013,07,14,11,25,18.40
2013,07,14,11,26,18.40
2013,07,14,11,27,18.30
2013,07,14,11,28,18.30
2013,07,14,11,29,18.30
2013,07,14,11,30,18.30
2013,07,14,11,31,18.40
2013,07,14,11,32,18.50
2013,07,14,11,33,18.50
2013,07,14,11,34,18.50
2013,07,14,11,35,18.50
2013,07,14,11,36,18.40
2013,07,14,11,37,18.40
2013,07,14,11,38,18.50
2013,07,14,11,39,18.60
2013,07,14,11,40,18.70
2013,07,14,11,41,18.80
2013,07,14,11,42,18.90
2013,07,14,11,43,18.90
2013,07,14,11,44,18.80
2013,07,14,11,45,18.80
2013,07,14,11,46,18.70
2013,07,14,11,47,18.50
2013,07,14,11,48,18.40
2013,07,14,11,49,18.40
2013,07,14,11,50,18.30
2013,07,14,11,51,18.20
2013,07,14,11,52,18.10
2013,07,14,11,53,18.10
2013,07,14,11,54,18.00
2013,07,14,11,55,17.90
2013,07,14,11,56,17.90
2013,07,14,11,57,17.90
2013,07,14,11,58,18.00
2013,07,14,11,59,18.00
2013,07,14,12,00,18.10
2013,07,14,12,01,18.10
2013,07,14,12,02,18.00
2013,07,14,12,03,17.90
2013,07,14,12,04,17.90
2013,07,14,12,05,17.90
2013,07,14,12,06,17.90
2013,07,14,12,07,17.90
2013,07,14,12,08,17.90
2013,07,14,12,09,17.80
2013,07,14,12,10,17.80
2013,07,14,12,11,17.90
2013,07,14,12,12,17.90
2013,07,14,12,13,17.90
2013,07,14,12,14,18.00
2013,07,14,12,15,18.10
2013,07,14,12,16,18.10
2013,07,14,12,17,18.00
2013,07,14,12,18,17.90
2013,07,14,12,19,17.90
2013,07,14,12,20,17.80
2013,07,14,12,21,17.80
2013,07,14,12,22,17.80
2013,07,14,12,23,17.80
2013,07,14,12,24,17.80
2013,07,14,12,25,17.80
2013,07,14,12,26,17.80
2013,07,14,12,27,17.80
2013,07,14,12,28,17.70
2013,07,14,12,29,17.80
2013,07,14,12,30,17.80
2013,07,14,12,31,17.70
2013,07,14,12,32,17.70
2013,07,14,12,33,17.80
2013,07,14,12,34,17.80
2013,07,14,12,35,17.90
2013,07,14,12,36,17.90
2013,07,14,12,37,18.00
2013,07,14,12,38,18.10
2013,07,14,12,39,18.20
2013,07,14,12,40,18.20
2013,07,14,12,41,18.20
2013,07,14,12,42,18.20
2013,07,14,12,43,18.20
2013,07,14,12,44,18.10
2013,07,14,12,45,18.00
2013,07,14,12,46,18.00
2013,07,14,12,47,17.90
2013,07,14,12,48,17.90
2013,07,14,12,49,17.90
2013,07,14,12,50,17.90
2013,07,14,12,51,18.00
2013,07,14,12,52,18.00
2013,07,14,12,53,18.10
2013,07,14,12,54,18.10
2013,07,14,12,55,18.10
2013,07,14,12,56,18.10
2013,07,14,12,57,18.10
2013,07,14,12,58,18.20
2013,07,14,12,59,18.20
2013,07,14,13,00,18.30
2013,07,14,13,01,18.30
2013,07,14,13,02,18.40
2013,07,14,13,03,18.50
2013,07,14,13,04,18.50
2013,07,14,13,05,18.50
2013,07,14,13,06,18.50
2013,07,14,13,07,18.50
2013,07,14,13,08,18.40
2013,07,14,13,09,18.40
2013,07,14,13,10,18.50
2013,07,14,13,11,18.60
2013,07,14,13,12,18.70
2013,07,14,13,13,18.80
2013,07,14,13,14,18.80
2013,07,14,13,15,18.80
2013,07,14,13,16,18.80
2013,07,14,13,17,18.70
2013,07,14,13,18,18.70
2013,07,14,13,19,18.70
2013,07,14,13,20,18.70
2013,07,14,13,21,18.60
2013,07,14,13,22,18.60
2013,07,14,13,23,18.70
2013,07,14,13,24,18.80
2013,07,14,13,25,18.90
2013,07,14,13,26,18.90
2013,07,14,13,27,18.90
2013,07,14,13,28,18.90
2013,07,14,13,29,18.80
2013,07,14,13,30,18.70
2013,07,14,13,31,18.60
2013,07,14,13,32,18.60
2013,07,14,13,33,18.60
2013,07,14,13,34,18.70
2013,07,14,13,35,18.80
2013,07,14,13,36,18.90
2013,07,14,13,37,18.90
2013,07,14,13,38,18.90
2013,07,14,13,39,18.90
2013,07,14,13,40,19.00
2013,07,14,13,41,19.00
2013,07,14,13,42,19.00
2013,07,14,13,43,18.90
2013,07,14,13,44,18.90
2013,07,14,13,45,19.00
2013,07,14,13,46,19.10
2013,07,14,13,47,19.00
2013,07,14,13,48,19.00
2013,07,14,13,49,18.80
2013,07,14,13,50,18.70
2013,07,14,13,51,18.70
2013,07,14,13,52,18.70
2013,07,14,13,53,18.70
2013,07,14,13,54,18.70
2013,07,14,13,55,18.80
2013,07,14,13,56,18.70
2013,07,14,13,57,18.60
2013,07,14,13,58,18.40
2013,07,14,13,59,18.30
2013,07,14,14,00,18.30
2013,07,14,14,01,18.20
2013,07,14,14,02,18.40
2013,07,14,14,03,18.40
2013,07,14,14,04,18.50
2013,07,14,14,05,18.50
2013,07,14,14,06,18.40
2013,07,14,14,07,18.50
2013,07,14,14,08,18.70
2013,07,14,14,09,18.80
2013,07,14,14,10,18.80
2013,07,14,14,11,18.90
2013,07,14,14,12,18.90
2013,07,14,14,13,18.80
2013,07,14,14,14,18.80
2013,07,14,14,15,18.90
2013,07,14,14,16,18.90
2013,07,14,14,17,18.80
2013,07,14,14,18,18.80
2013,07,14,14,19,18.80
2013,07,14,14,20,18.70
2013,07,14,14,21,18.70
2013,07,14,14,22,18.70
2013,07,14,14,23,18.60
2013,07,14,14,24,18.60
2013,07,14,14,25,18.60
2013,07,14,14,26,18.60
2013,07,14,14,27,18.50
2013,07,14,14,28,18.40
2013,07,14,14,29,18.40
2013,07,14,14,30,18.40
2013,07,14,14,31,18.30
2013,07,14,14,32,18.40
2013,07,14,14,33,18.40
2013,07,14,14,34,18.40
2013,07,14,14,35,18.50
2013,07,14,14,36,18.50
2013,07,14,14,37,18.60
2013,07,14,14,38,18.60
2013,07,14,14,39,18.70
2013,07,14,14,40,18.70
2013,07,14,14,41,18.60
2013,07,14,14,42,18.60
2013,07,14,14,43,18.70
2013,07,14,14,44,18.70
2013,07,14,14,45,18.70
2013,07,14,14,46,18.70
2013,07,14,14,47,18.70
2013,07,14,14,48,18.60
2013,07,14,14,49,18.60
2013,07,14,14,50,18.60
2013,07,14,14,51,18.50
2013,07,14,14,52,18.40
2013,07,14,14,53,18.30
2013,07,14,14,54,18.20
2013,07,14,14,55,18.20
2013,07,14,14,56,18.20
2013,07,14,14,57,18.20
2013,07,14,14,58,18.20
2013,07,14,14,59,18.20
2013,07,14,15,00,18.20
2013,07,14,15,01,18.20
2013,07,14,15,02,18.30
2013,07,14,15,03,18.40
2013,07,14,15,04,18.40
2013,07,14,15,05,18.50
2013,07,14,15,06,18.60
2013,07,14,15,07,18.60
2013,07,14,15,08,18.70
2013,07,14,15,09,18.70
2013,07,14,15,10,18.80
2013,07,14,15,11,18.80
2013,07,14,15,12,18.80
2013,07,14,15,13,18.90
2013,07,14,15,14,18.90
2013,07,14,15,15,19.00
2013,07,14,15,16,19.10
2013,07,14,15,17,19.10
2013,07,14,15,18,19.20
2013,07,14,15,19,19.30
2013,07,14,15,20,19.30
2013,07,14,15,21,19.40
2013,07,14,15,22,19.50
2013,07,14,15,23,19.70
2013,07,14,15,24,19.80
2013,07,14,15,25,19.90
2013,07,14,15,26,20.10
2013,07,14,15,27,20.20
2013,07,14,15,28,20.30
2013,07,14,15,29,20.40
2013,07,14,15,30,20.40
2013,07,14,15,31,20.30
2013,07,14,15,32,20.30
2013,07,14,15,33,20.30
2013,07,14,15,34,20.30
2013,07,14,15,35,20.30
2013,07,14,15,36,20.30
2013,07,14,15,37,20.30
2013,07,14,15,38,20.30
2013,07,14,15,39,20.30
2013,07,14,15,40,20.30
2013,07,14,15,41,20.30
2013,07,14,15,42,20.30
2013,07,14,15,43,20.40
2013,07,14,15,44,20.60
2013,07,14,15,45,20.70
2013,07,14,15,46,20.80
2013,07,14,15,47,20.80
2013,07,14,15,48,20.70
2013,07,14,15,49,20.70
2013,07,14,15,50,20.70
2013,07,14,15,51,20.70
2013,07,14,15,52,20.80
2013,07,14,15,53,20.80
2013,07,14,15,54,20.80
2013,07,14,15,55,20.80
2013,07,14,15,56,20.90
2013,07,14,15,57,21.00
2013,07,14,15,58,21.10
2013,07,14,15,59,21.20
2013,07,14,16,00,21.10
2013,07,14,16,01,21.00
2013,07,14,16,02,20.90
2013,07,14,16,03,20.80
2013,07,14,16,04,20.60
2013,07,14,16,05,20.50
2013,07,14,16,06,20.40
2013,07,14,16,07,20.40
2013,07,14,16,08,20.30
2013,07,14,16,09,20.30
2013,07,14,16,10,20.30
2013,07,14,16,11,20.30
2013,07,14,16,12,20.40
2013,07,14,16,13,20.40
2013,07,14,16,14,20.60
2013,07,14,16,15,20.70
2013,07,14,16,16,20.80
2013,07,14,16,17,20.90
2013,07,14,16,18,21.10
2013,07,14,16,19,21.20
2013,07,14,16,20,21.20
2013,07,14,16,21,21.20
2013,07,14,16,22,21.20
2013,07,14,16,23,21.30
2013,07,14,16,24,21.30
2013,07,14,16,25,21.20
2013,07,14,16,26,21.20
2013,07,14,16,27,21.20
2013,07,14,16,28,21.10
2013,07,14,16,29,21.10
2013,07,14,16,30,21.20
2013,07,14,16,31,21.10
2013,07,14,16,32,21.00
2013,07,14,16,33,21.00
2013,07,14,16,34,20.90
2013,07,14,16,35,20.90
2013,07,14,16,36,20.80
2013,07,14,16,37,20.80
2013,07,14,16,38,20.80
2013,07,14,16,39,20.80
2013,07,14,16,40,20.80
2013,07,14,16,41,20.70
2013,07,14,16,42,20.70
2013,07,14,16,43,20.80
2013,07,14,16,44,20.80
2013,07,14,16,45,20.70
2013,07,14,16,46,20.80
2013,07,14,16,47,20.80
2013,07,14,16,48,20.60
2013,07,14,16,49,20.50
2013,07,14,16,50,20.50
2013,07,14,16,51,20.50
2013,07,14,16,52,20.50
2013,07,14,16,53,20.40
2013,07,14,16,54,20.40
2013,07,14,16,55,20.50
2013,07,14,16,56,20.50
2013,07,14,16,57,20.50
2013,07,14,16,58,20.50
2013,07,14,16,59,20.60
2013,07,14,17,00,20.60
2013,07,14,17,01,20.80
2013,07,14,17,02,20.90
2013,07,14,17,03,21.00
2013,07,14,17,04,21.10
2013,07,14,17,05,21.20
2013,07,14,17,06,21.30
2013,07,14,17,07,21.30
2013,07,14,17,08,21.30
2013,07,14,17,09,21.40
2013,07,14,17,10,21.40
2013,07,14,17,11,21.30
2013,07,14,17,12,21.30
2013,07,14,17,13,21.30
2013,07,14,17,14,21.40
2013,07,14,17,15,21.30
2013,07,14,17,16,21.30
2013,07,14,17,17,21.40
2013,07,14,17,18,21.40
2013,07,14,17,19,21.40
2013,07,14,17,20,21.40
2013,07,14,17,21,21.40
2013,07,14,17,22,21.40
2013,07,14,17,23,21.30